Regional Weather Roundup
Issued by NWS

Home | Current Version | Previous Version | Graphics & Text | Print | Product List | Glossary On
Versions: 1 2 3 4 5 6 7 8 9 10 11 12 13 14 15 16 17 18 19 20 21 22 23 24 25 26 27 28 29 30 31 32 33 34 35 36 37 38 39 40 41 42 43 44 45 46 47 48 49 50
000
ASUS43 KMKX 050920
RWRWI

WISCONSIN REGIONAL WEATHER ROUNDUP
NATIONAL WEATHER SERVICE MILWAUKEE/SULLIVAN WI
300 AM CST THU MAR 05 2015

NOTE: "FAIR" INDICATES FEW OR NO CLOUDS BELOW 12,000 FEET WITH NO
SIGNIFICANT WEATHER AND/OR OBSTRUCTIONS TO VISIBILITY.

WIZ001-002-006>008-014>016-023>028-051000-
NORTHWEST WISCONSIN

CITY           SKY/WX    TMP DP  RH WIND       PRES   REMARKS
SUPERIOR ARPT  CLEAR    -12 -18  74 SW7       30.42F WCI -28
ASHLAND        CLEAR     -9 -17  68 SW8       30.38S WCI -25
HAYWARD        CLEAR    -21 -28  70 CALM      30.35S
SIREN          CLEAR    -16 -23  73 CALM      30.41S
CUMBERLAND     CLEAR    -15 -22  70 W5        30.36F WCI -27
RICE LAKE      CLEAR    -15 -20  78 CALM      30.40S
CHETEK         CLEAR    -13 -17  81 CALM      30.39F
LADYSMITH      CLEAR    -15 -21  74 CALM      30.37S
EAU CLAIRE     CLEAR     -8 -17  64 SW3       30.40F
MENOMONIE      CLEAR     -5 -15  63 W6        30.42F WCI -17
NEW RICHMOND   CLEAR    -14 -19  76 CALM      30.41F
OSCEOLA        CLEAR    -15 -20  78 CALM      30.46S
$$

WIZ003>005-009-010-017-018-051000-
NORTH CENTRAL WISCONSIN

CITY           SKY/WX    TMP DP  RH WIND       PRES   REMARKS
MANITOWISH WTR CLEAR    -15 -20  79 NW3       30.25S
ARBOR VITAE    CLEAR    -15 -21  74 CALM      30.26S
WOODRUFF       CLEAR    -15 -21  74 CALM      30.26S
RHINELANDER    CLEAR    -14 -20  74 W3        30.27S
EAGLE RIVER    CLEAR    -18 -25  71 CALM      30.25S
LAND O LAKES   CLOUDY   -20 -27  72 SW3       30.25S
PHILLIPS       CLEAR    -21 -26  76 CALM      30.29S
TOMAHAWK       CLEAR    -20 -27  72 CALM      30.30S
MEDFORD        CLEAR    -13 -19  74 CALM      30.31F
MERRILL        CLEAR    -17 -22  79 CALM      30.32S
$$

WIZ029-030-035-036-043>047-051000-
CENTRAL WISCONSIN

CITY           SKY/WX    TMP DP  RH WIND       PRES   REMARKS
WAUSAU         CLEAR     -6 -14  68 NW6       30.32F WCI -19
MOSINEE        CLEAR     -6 -13  71 W5        30.33F WCI -17
MARSHFIELD     CLEAR     -7 -15  68 NW7       30.33F WCI -21
STEVENS POINT  CLEAR    -14 -19  76 CALM      30.35F
WAUPACA        CLEAR     -2 -12  62 CALM      30.38S
WAUTOMA        CLEAR    -10 -16  75 CALM      30.38F
WISC RAPIDS    CLEAR     -4 -15  59 NW6       30.37F WCI -16
CAMP DOUGLAS   CLEAR     -7 -12  78 W5        30.38F WCI -18
$$

WIZ011>013-019>022-031-037>040-048>050-051000-
NORTHEAST WISCONSIN

CITY           SKY/WX    TMP DP  RH WIND       PRES   REMARKS
ANTIGO         CLEAR    -13 -17  84 CALM      30.28F
SHAWANO        CLEAR     -1 -12  60 W5        30.36F WCI -12
OCONTO         CLEAR    -11 -16  78 NW3       30.37S
STURGEON BAY   CLEAR     -2 -13  60 W5        30.36S WCI -12
GREEN BAY      CLEAR     -7 -15  68 NW8       30.37S WCI -23
MANITOWOC      CLEAR      0 -10  63 NW6       30.37F WCI -12
APPLETON       CLEAR     -2 -15  55 NW8       30.35F WCI -17
CLINTONVILLE   CLEAR     -4 -13  65 W3        30.36F
OSHKOSH        CLEAR     -1 -11  62 NW6       30.36F WCI -13
$$

WIZ032>034-041-042-053>061-051000-
SOUTHWEST WISCONSIN

CITY           SKY/WX    TMP DP  RH WIND       PRES   REMARKS
LA CROSSE      CLEAR     -1  -9  68 CALM      30.43F
SPARTA         CLEAR    -10 -15  79 CALM      30.41F
VIROQUA        CLEAR     -6 -12  75 CALM      30.34F
BOSCOBEL       CLEAR     -5 -11  75 CALM      30.43S
PRAIRIE DU CHI CLEAR     -3 -11  66 W9        30.44S WCI -18
PLATTEVILLE    CLEAR     -1  -8  74 NW5       30.36F WCI -11
$$

WIZ056-057-062-063-064-067-068-051000-
SOUTH CENTRAL WISCONSIN

CITY           SKY/WX    TMP DP  RH WIND       PRES   REMARKS
REEDSBURG      CLEAR     -1  -9  71 NW5       30.38S WCI -12
BARABOO/DELLS  CLEAR     -1 -12  59 CALM      30.37S
LONE ROCK      CLEAR     -2  -9  72 W3        30.41S
MINERAL POINT  CLEAR      1  -8  66 NW5       30.34F WCI  -8
MADISON        CLEAR      1  -9  62 N5        30.36F WCI  -9
MIDDLETON      CLEAR      1  -9  60 N6        30.37S WCI -10
WATERTOWN      FAIR       2  -8  60 NW6       30.35F WCI  -9
MONROE         PTCLDY     3  -4  72 NW7       30.34S WCI  -9
JANESVILLE     PTCLDY     0  -8  71 NW5       30.36F WCI -10
$$

WIZ051-052-058>065-066-070>072-051000-
SOUTHEAST WISCONSIN

CITY           SKY/WX    TMP DP  RH WIND       PRES   REMARKS
MILWAUKEE      MOCLDY     7  -9  48 N9        30.36S WCI  -7
WAUKESHA       PTCLDY     1  -9  60 NW6       30.35S WCI -10
MILWAUKEE/TIMM PTCLDY     5  -9  51 NW7       30.36F WCI  -7
RACINE         PTCLDY     5  -9  52 NW6       30.36F WCI  -6
BURLINGTON     PTCLDY    -3 -11  67 NW3       30.34F
KENOSHA        PTCLDY     4  -9  55 NW6       30.35S WCI  -7
FOND DU LAC    FLURRIES   0 -11  59 NW6       30.36F WCI -12
SHEBOYGAN      PTCLDY     1 -11  57 NW5       30.36S WCI  -9
WEST BEND      PTCLDY     1 -11  55 NW5       30.35S WCI  -8
JUNEAU         CLEAR      1 -10  62 NW6       30.36S WCI -11
$$

LSZ147-162-051000-
LAKE SUPERIOR

STATION/POSITION TIME  TEMP    WIND        PRES    WAVE
                       AIR SEA DIR/SP/G            HT/PER
                 (UTC) (F)     (DEG/KT/KT) (MB)    (FT/S)
DEVILS ISLAND    0900    5     290/ 11/ 13 1029.8F
PORT WING        0800   -5     210/  8/ 10 1029.5
SAXON HARBOR     0800   -4     210/  7/ 10 1028.8R
$$

LMZ867-665-643>646-051000-
LAKE MICHIGAN

STATION/POSITION TIME  TEMP    WIND        PRES    WAVE
                       AIR SEA DIR/SP/G            HT/PER
                 (UTC) (F)     (DEG/KT/KT) (MB)    (FT/S)
NORTHPORT PIER   0813    1     270/  8/ 13 1027.8S
KEWAUNEE LAKESHO 0900   -3     300/  6/  7 1027.1F
SHEBOYGAN LAKESH 0900    5     320/ 10/ 13 1030.1S
PORT WASHINGTON  0840    5     300/  5/  7 1029.5R
MILWAUKEE LAKESH 0900    8     330/  9/ 12   N/A
KENOSHA   LAKESH 0900    6     310/  9/ 12 1027.4F
$$

TC  - TEMPERATURE IN CELSIUS
VSB - VISIBILITY IN STATUTE MILES
WCI - WIND CHILL INDEX
HX  - HEAT INDEX




USA.gov is the U.S. government's official web portal to all federal, state and local government web resources and services.